Location: Dal�� Lhota
(48.7500°N, 14.0167°E)
Time: 02:34:00
(UTC+00:00)

Vanguard 1 Rocket - Visible Passes

Search period start: 06 August 2021 00:00
Search period end: 16 August 2021 00:00
Orbit: 650 x 4226 km, 34.3° (Epoch: 05 August)

Date Brightness Start Highest point End Pass type
(mag) Time Alt. Az. Time Alt. Az. Time Alt. Az.
12 Aug 11.7 03:22:02 10° S 03:38:29 22° SE 03:53:48 10° E visible
13 Aug 11.8 02:16:35 10° SSE 02:25:54 13° SE 02:35:10 10° ESE visible
14 Aug 11.6 03:21:31 10° S 03:39:56 27° SE 03:57:26 10° E visible
15 Aug 11.6 02:13:38 10° SSE 02:27:10 18° SE 02:40:57 10° E visible
